logo
Rechercher aéroport 
image banner adimage banner adimage banner ad
image banner ad

KCCB - Cable

Situé à Upland, United States

ICAO - CCB, IATA - CCB

Données fournies par Airmate  

Information générale

Coordonnées: N34°6'42" W117°41'15"
Élévation : 1443 feet MSL.
Variation magnétique : 14° East
Voir autres Aéroports à California

Données opérationnelles

Special qualification required
Heure actuelle UTC:
Heure actuelle locale:
Météo
METAR: KCCB 281250Z AUTO 00000KT 2 1/2SM HZ CLR 24/09 A2993 RMK AO2 VIS 1 3/4V5
Voir NOTAMs / SUP AIP / TFR affectant cet aéroport [VIEW]
Fréquences de communication: [VIEW]

Pistes:

Identifiant RWYQFULongueur (ft)Largeur (ft)SurfaceLDA (ft)
0669°386375ASPH
24249°386375ASPH

Coordonnées de l'aéroport

Adresse: Upland United States

Autres services d'aviation

Écoles de pilotage

Foothill Flying Club

Foothill Flying Club

Vue satellite de KCCB